Wind_Speed
10 10 11 11 12 12 12 12 12 12 12 12 12 12 12 12 12 12 12 12 11 12 12 11 12 12 12 12 11 11 12 11 11 11 11 12 11 11 12 12 11 12 12
10 11 11 11 12 12 12 12 12 13 13 12 12 12 13 13 13 13 13 12 12 12 13 13 12 12 12 12 12 12 12 12 12 11 11 11 11 11 12 12 12 12 13
10 11 11 11 12 12 13 13 13 13 13 13 13 13 13 13 14 14 14 14 13 14 13 13 13 13 13 13 12 13 13 13 12 12 12 12 12 12 12 12 12 13 13
12 12 12 12 12 13 13 13 13 13 13 13 13 13 13 14 14 14 14 15 14 15 14 14 14 13 13 13 13 13 13 13 13 13 13 13 13 13 13 13 14 14 14
12 13 13 12 13 13 13 14 14 14 13 13 13 14 14 14 15 15 16 15 15 15 15 15 15 14 14 14 14 14 14 14 14 14 14 15 15 15 15 15 15 15 14
12 13 13 13 13 13 14 15 14 14 14 14 14 14 15 16 16 16 17 17 17 17 16 15 15 15 15 15 15 15 15 15 15 15 15 15 15 15 15 15 15 15 15
13 13 13 14 14 14 15 15 15 15 15 15 15 16 16 17 17 18 17 17 17 17 16 16 15 15 15 16 16 17 17 17 16 17 16 16 16 16 16 16 16 16 15
13 13 13 14 15 15 15 16 16 16 16 16 17 17 18 18 18 18 18 18 18 17 18 18 17 17 16 17 17 18 18 18 17 17 17 17 16 16 16 16 16 16 16
14 14 14 15 15 16 16 16 17 17 17 18 18 19 19 19 19 19 19 19 19 19 19 18 18 18 18 18 18 18 18 18 18 18 18 18 17 17 16 17 17 17 17
15 15 15 16 16 16 17 17 18 18 19 20 20 20 20 20 20 20 20 20 19 19 19 19 19 19 20 20 20 20 20 19 19 19 19 19 18 18 17 18 18 18 18
16 16 16 17 18 18 18 18 19 20 20 21 21 21 21 21 21 21 21 21 21 21 21 21 21 21 21 21 21 21 21 21 20 20 20 19 19 19 19 19 19 19 19
17 18 18 18 19 19 19 20 20 21 22 22 22 22 22 22 22 22 22 22 22 22 22 22 23 23 23 22 22 22 22 22 22 21 21 21 21 21 21 21 20 20 21
18 19 19 20 20 20 20 21 21 21 22 23 23 23 23 23 23 23 23 22 23 23 22 22 23 23 23 23 22 23 22 22 22 22 22 22 22 22 22 23 23 22 22
20 20 21 21 22 22 22 22 23 23 23 23 24 24 24 24 23 23 23 23 23 23 23 23 23 23 23 23 23 23 22 23 23 23 23 23 23 23 24 24 24 24 24
21 22 22 22 23 24 24 24 24 25 25 25 25 25 25 25 24 24 24 24 24 24 25 24 24 24 24 24 24 23 24 24 24 24 24 24 24 25 25 25 25 25 25
23 23 23 24 24 25 25 25 25 25 25 25 24 24 24 25 25 25 25 25 25 25 25 25 25 25 24 24 25 25 25 25 25 25 24 24 24 25 26 26 26 26 25
25 25 25 25 26 26 26 26 26 25 25 24 25 25 25 25 26 26 26 26 26 26 26 26 26 25 25 26 26 26 27 26 26 26 26 25 25 25 25 26 27 27 27
26 26 26 26 27 27 27 27 26 26 26 25 25 26 26 26 27 27 27 27 27 27 27 27 27 26 26 27 27 27 28 28 28 27 27 26 25 26 26 27 27 28 28
27 26 26 26 26 26 27 27 28 28 27 27 27 27 28 28 28 28 28 28 28 28 28 28 28 27 27 28 28 28 29 28 28 28 28 27 26 26 27 28 28 28 29
27 27 27 26 26 27 27 28 29 29 29 29 29 29 29 30 30 30 29 29 29 29 29 29 29 29 28 29 29 29 29 28 29 29 29 29 29 28 29 29 29 30 31
28 28 28 28 28 28 28 29 30 30 31 32 31 31 31 31 31 31 31 31 30 30 30 30 30 30 30 30 29 30 30 30 30 30 30 30 30 30 31 31 31 31 31
29 29 29 29 29 29 30 31 31 31 32 32 32 32 32 33 32 32 33 32 32 31 31 31 31 31 31 31 31 31 30 30 30 30 30 31 31 31 31 31 32 32 33
29 29 30 30 30 30 32 32 33 33 33 33 33 34 34 34 34 33 33 33 32 31 31 31 31 31 31 32 32 32 31 31 31 31 32 32 32 32 32 32 32 33 33
29 30 30 31 31 31 32 33 34 35 36 36 35 34 34 34 34 33 33 33 32 32 32 32 32 32 32 32 32 32 31 31 31 31 32 32 32 33 33 33 33 34 35
30 30 31 31 32 32 32 33 34 35 35 35 35 35 35 34 34 34 33 32 33 33 32 32 32 33 33 33 33 33 32 32 31 32 32 32 33 33 34 34 34 35 35
32 32 32 33 33 33 33 34 34 34 34 34 34 34 34 34 34 33 33 33 34 34 34 33 33 33 33 33 33 34 34 34 34 34 34 33 33 34 34 34 34 35 35
Wind_Direction
293 293 293 293 291 289 287 289 290 289 290 291 289 287 290 294 297 298 300 300 295 293 294 293 290 289 288 286 286 286 287 287 289 289 288 289 288 290 290 290 292 291 292
292 295 294 293 292 292 291 292 292 291 291 292 290 291 292 291 292 293 296 298 298 296 297 296 292 289 289 288 287 284 284 286 290 292 292 291 289 289 292 293 291 288 289
292 293 293 297 294 293 292 292 292 291 291 292 290 291 293 293 294 294 294 293 295 296 296 294 291 288 285 287 289 288 286 287 289 291 292 292 293 291 290 289 288 288 288
291 292 293 296 295 292 292 293 292 291 290 290 290 291 294 294 294 293 294 293 293 293 290 287 287 287 285 286 288 289 289 288 288 289 289 289 290 290 288 287 287 287 288
291 292 291 292 294 289 289 292 291 289 287 286 287 289 293 294 294 293 294 293 292 291 290 288 287 287 285 285 287 288 289 288 287 287 287 287 287 286 289 289 289 289 288
293 292 291 291 292 289 290 290 289 289 289 288 287 288 291 292 293 293 292 291 292 291 291 289 286 286 286 285 285 285 288 288 287 287 287 286 286 286 288 289 288 288 288
295 293 292 293 292 291 290 289 290 288 289 289 288 288 290 291 291 292 291 291 291 290 289 288 286 287 286 285 285 284 285 285 283 283 284 286 286 285 286 287 287 287 288
296 295 294 295 295 292 289 287 289 289 289 289 288 289 290 290 290 290 289 289 290 288 288 287 286 285 284 285 285 283 283 282 282 281 282 283 283 284 285 285 286 288 289
294 292 292 295 294 293 290 289 291 290 288 287 289 290 291 292 291 290 290 288 287 287 286 287 287 285 283 284 284 284 281 280 281 281 279 280 279 281 284 285 285 286 287
292 293 294 295 292 292 290 290 290 289 288 288 289 289 291 292 292 290 289 288 287 286 285 286 287 287 285 283 283 283 280 279 280 280 280 280 280 280 283 284 284 284 284
293 293 293 294 294 293 292 292 291 290 288 289 290 289 289 290 290 289 288 288 287 286 285 284 285 285 285 284 283 283 282 280 278 278 279 279 279 279 280 282 282 282 283
291 292 291 292 293 293 293 293 290 290 290 290 289 289 289 290 288 288 287 288 288 287 284 284 283 283 282 281 281 280 280 278 278 277 276 276 276 277 277 278 279 280 280
290 291 291 291 293 292 293 293 292 292 292 291 290 291 291 290 288 287 286 286 287 287 285 284 284 284 284 281 280 278 278 278 278 276 275 274 275 277 277 276 276 278 279
291 291 291 291 291 291 291 291 293 293 293 292 291 290 290 289 288 287 285 285 285 285 284 284 284 284 284 282 280 279 278 277 277 277 274 274 275 276 276 275 276 277 278
289 290 291 290 290 289 289 290 291 292 291 291 291 290 289 288 287 285 284 285 286 286 285 285 285 284 284 283 281 279 278 275 275 277 276 275 274 273 273 274 274 275 276
288 289 290 290 289 288 288 290 290 291 291 292 292 291 289 287 287 285 284 286 287 287 286 286 285 284 283 282 281 281 280 278 277 277 279 277 275 274 275 274 274 274 274
288 289 289 289 289 289 288 288 288 290 290 291 292 291 289 288 288 287 285 286 287 286 285 284 284 283 281 280 280 282 281 281 280 278 279 278 277 276 276 275 274 274 274
288 289 289 289 289 289 288 286 286 288 289 289 289 289 289 289 289 289 286 285 285 284 283 283 284 284 283 281 280 281 282 281 281 280 278 279 278 276 276 276 275 274 274
289 289 289 290 290 290 289 288 287 286 288 288 288 289 289 289 288 288 287 285 284 283 281 281 282 282 282 282 280 280 281 282 282 281 279 277 278 276 275 276 276 276 276
289 289 289 290 290 289 289 288 288 286 287 288 288 287 287 288 288 287 286 284 283 281 280 279 280 281 282 282 281 280 281 281 281 281 280 278 277 277 275 276 276 276 275
288 290 288 290 290 289 288 288 287 286 285 285 285 286 286 287 287 286 285 283 282 281 279 279 280 280 281 282 282 281 281 280 280 280 280 280 278 277 276 275 276 277 275
290 290 291 292 291 288 288 288 288 287 286 286 285 285 286 286 286 284 284 283 281 281 279 278 278 279 280 281 281 281 280 280 280 280 280 281 280 277 277 275 275 276 275
291 291 292 293 293 291 289 289 288 288 288 287 287 286 284 284 285 284 284 283 281 280 279 278 277 278 279 280 279 279 279 279 279 279 280 281 281 279 277 276 274 275 275
291 292 293 293 293 292 291 290 290 289 289 288 287 286 285 284 284 284 283 283 283 281 280 278 277 277 278 279 278 278 279 279 279 279 280 281 281 280 278 277 275 274 275
292 292 293 294 294 294 293 293 293 291 290 289 288 287 285 284 283 283 283 282 281 281 280 279 277 278 279 279 278 277 277 278 279 280 280 281 281 281 280 278 276 275 275
292 293 294 294 295 295 295 295 295 294 293 291 290 288 286 284 283 282 282 281 280 281 281 279 278 279 280 280 279 277 277 278 279 280 280 281 280 280 280 279 277 276 276
Height
5848 5847 5847 5846 5846 5846 5846 5846 5845 5845 5845 5845 5844 5844 5844 5843 5843 5842 5842 5841 5841 5840 5840 5839 5839 5838 5838 5838 5837 5837 5836 5836 5836 5835 5835 5835 5834 5834 5833 5833 5833 5832 5832
5846 5846 5845 5844 5844 5843 5843 5843 5843 5842 5842 5842 5842 5841 5841 5841 5840 5840 5839 5838 5838 5837 5837 5836 5836 5835 5835 5835 5834 5834 5833 5833 5833 5833 5832 5832 5832 5831 5830 5830 5829 5829 5829
5844 5844 5843 5842 5842 5841 5841 5840 5840 5840 5839 5839 5839 5838 5838 5837 5837 5836 5836 5835 5835 5834 5834 5833 5833 5832 5832 5831 5831 5831 5831 5830 5830 5829 5830 5829 5829 5828 5828 5827 5827 5827 5826
5841 5841 5841 5840 5839 5839 5838 5838 5837 5837 5836 5836 5836 5835 5835 5834 5834 5833 5833 5832 5831 5830 5829 5829 5829 5828 5828 5828 5828 5827 5827 5827 5827 5826 5826 5826 5825 5825 5825 5825 5824 5823 5823
5839 5838 5838 5838 5837 5836 5835 5835 5834 5834 5833 5833 5833 5832 5831 5831 5830 5830 5829 5828 5827 5826 5826 5825 5825 5825 5824 5824 5824 5824 5823 5823 5823 5823 5822 5822 5821 5821 5821 5821 5820 5820 5819
5836 5836 5835 5834 5834 5833 5832 5832 5831 5830 5830 5830 5829 5829 5828 5827 5827 5826 5825 5824 5823 5822 5822 5821 5821 5821 5820 5820 5820 5820 5820 5819 5819 5819 5818 5818 5817 5817 5817 5816 5816 5816 5815
5833 5833 5832 5831 5831 5830 5829 5828 5828 5827 5827 5826 5826 5825 5824 5823 5823 5822 5821 5820 5819 5818 5817 5817 5817 5816 5816 5816 5815 5815 5816 5815 5815 5815 5814 5814 5813 5812 5812 5812 5812 5811 5811
5830 5829 5829 5828 5827 5827 5826 5825 5824 5823 5823 5822 5822 5821 5820 5819 5818 5817 5816 5815 5814 5814 5813 5812 5812 5812 5811 5811 5811 5811 5811 5810 5810 5810 5810 5809 5809 5808 5808 5808 5807 5807 5807
5827 5826 5825 5824 5824 5823 5822 5821 5820 5820 5819 5818 5817 5816 5815 5814 5813 5812 5811 5810 5809 5809 5808 5807 5807 5807 5807 5806 5806 5806 5805 5805 5805 5805 5805 5804 5804 5803 5803 5803 5802 5803 5802
5824 5822 5821 5821 5820 5819 5818 5817 5816 5815 5814 5814 5813 5812 5810 5809 5808 5807 5806 5805 5804 5803 5803 5802 5802 5801 5801 5801 5801 5800 5800 5800 5800 5800 5799 5799 5799 5798 5798 5798 5797 5797 5797
5820 5819 5818 5817 5816 5814 5813 5812 5811 5810 5809 5808 5807 5806 5805 5804 5802 5801 5801 5800 5799 5798 5797 5797 5796 5796 5796 5795 5795 5795 5794 5794 5794 5794 5794 5793 5793 5793 5793 5792 5792 5792 5791
5816 5815 5814 5813 5811 5810 5809 5808 5806 5805 5804 5803 5802 5800 5799 5798 5797 5796 5795 5794 5793 5792 5792 5791 5790 5790 5789 5789 5789 5788 5788 5788 5788 5787 5787 5787 5787 5787 5787 5787 5786 5786 5786
5811 5810 5809 5808 5806 5805 5804 5803 5801 5800 5798 5797 5796 5794 5793 5792 5791 5790 5789 5788 5787 5786 5785 5785 5784 5783 5783 5782 5782 5782 5781 5781 5781 5781 5781 5781 5781 5781 5781 5780 5780 5779 5779
5807 5805 5804 5803 5801 5800 5799 5797 5796 5794 5792 5791 5789 5788 5787 5785 5784 5783 5782 5781 5781 5780 5779 5778 5777 5777 5776 5776 5775 5775 5775 5774 5774 5774 5774 5774 5774 5774 5774 5773 5773 5773 5772
5801 5800 5798 5797 5796 5794 5792 5791 5790 5788 5786 5784 5783 5781 5780 5779 5777 5776 5776 5775 5774 5773 5772 5771 5770 5770 5769 5769 5768 5768 5767 5767 5767 5767 5767 5766 5767 5766 5766 5766 5766 5765 5765
5795 5794 5792 5791 5789 5788 5786 5785 5783 5781 5778 5777 5776 5774 5773 5772 5771 5769 5768 5767 5766 5765 5765 5764 5763 5762 5762 5761 5761 5760 5760 5760 5760 5760 5759 5759 5759 5759 5758 5758 5758 5758 5758
5790 5788 5786 5785 5783 5781 5780 5778 5776 5774 5772 5771 5769 5768 5766 5765 5763 5762 5761 5760 5759 5758 5757 5756 5755 5755 5754 5754 5753 5753 5753 5753 5752 5752 5752 5751 5750 5750 5750 5750 5750 5749 5749
5783 5781 5780 5778 5776 5774 5772 5771 5769 5767 5765 5764 5762 5761 5759 5758 5756 5755 5753 5752 5751 5750 5749 5748 5748 5747 5746 5746 5745 5745 5745 5745 5744 5744 5743 5743 5742 5742 5742 5742 5742 5741 5741
5776 5774 5772 5770 5769 5767 5765 5763 5761 5760 5757 5756 5755 5753 5752 5750 5748 5747 5745 5744 5742 5741 5741 5740 5740 5739 5739 5738 5737 5737 5736 5736 5736 5735 5735 5734 5734 5734 5734 5733 5733 5733 5733
5769 5767 5765 5763 5761 5759 5757 5756 5754 5752 5750 5748 5746 5745 5743 5742 5740 5739 5737 5735 5734 5733 5732 5732 5731 5731 5730 5729 5729 5728 5728 5728 5727 5727 5726 5725 5725 5725 5725 5725 5724 5724 5724
5762 5759 5757 5755 5754 5751 5749 5747 5746 5743 5741 5739 5738 5736 5734 5733 5731 5730 5728 5727 5726 5724 5724 5723 5722 5722 5721 5720 5720 5719 5719 5718 5718 5718 5717 5716 5716 5715 5715 5715 5715 5715 5714
5754 5752 5750 5748 5746 5743 5741 5739 5737 5735 5733 5731 5729 5727 5725 5723 5722 5720 5719 5717 5716 5715 5714 5713 5713 5713 5712 5711 5710 5710 5709 5709 5709 5708 5708 5707 5706 5706 5705 5705 5705 5705 5704
5747 5745 5742 5740 5738 5735 5733 5730 5728 5726 5723 5721 5719 5717 5715 5714 5712 5710 5709 5707 5706 5705 5704 5704 5703 5703 5702 5701 5701 5700 5699 5699 5698 5698 5698 5697 5697 5696 5696 5695 5695 5694 5694
5739 5737 5734 5732 5729 5726 5724 5721 5718 5715 5713 5711 5709 5707 5705 5703 5702 5700 5699 5698 5696 5695 5694 5693 5693 5692 5692 5691 5691 5690 5689 5689 5688 5688 5687 5687 5686 5686 5686 5685 5684 5684 5683
5730 5728 5726 5723 5720 5717 5714 5711 5708 5705 5702 5700 5697 5695 5694 5692 5691 5690 5689 5688 5686 5685 5684 5683 5682 5682 5682 5681 5680 5680 5679 5679 5679 5678 5677 5677 5676 5676 5675 5674 5674 5673 5672
5722 5719 5717 5714 5711 5708 5704 5701 5697 5694 5692 5689 5686 5684 5682 5681 5680 5679 5678 5677 5676 5675 5674 5673 5672 5671 5671 5670 5670 5669 5669 5668 5668 5668 5667 5666 5666 5665 5664 5663 5662 5662 5661